星链-1517 (STARLINK-1517 )

导读 | 星芒AI

STARLINK-1517 是 SpaceX Starlink 项目中的一颗低轨通信卫星,属于第 30 批组网发射的星链卫星之一。该卫星于 2022 年 12 月 3 日由猎鹰 9 号火箭送入近地轨道,旨在为全球提供高速互联网服务。它运行在约 550 公里的高度,设计寿命约 5 至 7 年,具备自动避障和高效数据传输能力。作为星链网络的重要组成部分,STARLINK-1517 有助于提升偏远地区的网络覆盖和连接质量。

基本信息
目录编号:
45787
目录名称:
STARLINK-1517
国际标识:
2020-038BK
轨道中心:
EARTH
卫星名称:
星链-1517
卫星全名:
星链-1517 (STARLINK-1517 )
卫星状态:
已陨落 最后检测时间 2025-06-06
发射日期:
2020-06-13 UTC
国别 :
美国 (US)
星等 :
--
轨道信息
数据来源 国际轨道数据
星历时间: 2025-06-06T04:22:50+0800
轨道信息已过期145天
半长轴: 6542.504km
偏心率: 0.0005361
轨道倾角: 53.025°
近地点辐角 292.995°
升交点赤经 309.354°
平近点角 220.867°
近地点: 160.861km
远地点: 167.877km
周期: 87.776分钟
每日圈数: 16.405398
详细信息
固有亮度:
5
最大亮度:
2.5
卫星平台:
Starlink V1.0
覆盖范围:
全球
运营商:
太空探索技术公司
运营商所在国:
美国
制造商(研发单位):
太空探索技术公司
制造商所在国:
美国
使用方式:
暂无
卫星简介
星链(Starlink)计划是由太空探索技术公司(SpaceX)提出的一个巨型低轨卫星互联网星座项目,计划在2019年至2024年间在太空搭建由约1.2万颗卫星组成的“星链”网络,其中1584颗将部署在地球上空550千米处的近地轨道,并从2020年开始工作。该卫星仍在工作。